Regional Weather Roundup
Issued by NWS

Home | Current Version | Previous Version | Graphics & Text | Print | Product List | Glossary On
Versions: 1 2 3 4 5 6 7 8 9 10 11 12 13 14 15 16 17 18 19 20 21 22 23 24 25 26 27 28 29 30 31 32 33 34 35 36 37 38 39 40 41 42 43 44 45 46 47 48 49 50
000
ASUS43 KTOP 170959
RWRKS

WEATHER ROUNDUP FOR KANSAS
NATIONAL WEATHER SERVICE GOODLAND KS
400 AM CST TUE JAN 17 2017

NOTE:  "FAIR" INDICATES FEW OR NO CLOUDS BELOW 12,000 FEET WITH NO
SIGNIFICANT WEATHER AND/OR OBSTRUCTIONS TO VISIBILITY.

KSZ001>006-013>018-027>032-041>047-171100-
NORTHWEST KANSAS

CITY           SKY/WX    TMP DP  RH WIND       PRES   REMARKS
GOODLAND       CLOUDY    25  21  85 W9        30.09S
HAYS           PTCLDY    32  28  85 NW10      30.10S WCI  24
HILL CITY      CLOUDY    32  27  81 NW9       30.10S
RUSSELL        PTCLDY    32  28  85 NW12      30.07S WCI  23
$$

KSZ061>065-074>080-084>089-171100-
SOUTHWEST KANSAS

CITY           SKY/WX    TMP DP  RH WIND       PRES   REMARKS
DODGE CITY     CLOUDY    33  30  88 NW12      30.09F WCI  24
ELKHART          N/A     32  25  76 NW8         N/A
GARDEN CITY    CLOUDY    34  28  79 NW8       30.11F
GREAT BEND     PTCLDY    33  30  88 NW12      30.09S WCI  24
LIBERAL        CLOUDY    36  28  75 NW16      30.13S WCI  26
$$

KSZ066>073-081>083-090>101-171100-
SOUTHEAST KANSAS

CITY           SKY/WX    TMP DP  RH WIND       PRES   REMARKS
CHANUTE        CLOUDY    37  34  89 NW9       30.06R
HUTCHINSON     CLOUDY    35  32  88 W5        30.07F
MEDICINE LODGE   N/A     32  30  92 NW5       30.10R
NEWTON         CLOUDY    33  33 100 NW10      30.07R FOG     WCI  25
PARSONS        CLOUDY    37  35  92 NW9       30.07R
WICHITA INTL   CLOUDY    36  34  92 NW13      30.08R WCI  27
WICHITA JABRA  CLOUDY    35  34  96 NW10      30.07S WCI  27
WICHITA MCCONL CLOUDY    36  32  87 NW12      30.07S WCI  27
WINFIELD       CLOUDY    37  34  89 NW8       30.09S
$$

KSZ007>012-019>026-033>040-048>060-102>105-171100-
NORTHEAST KANSAS

CITY           SKY/WX    TMP DP  RH WIND       PRES   REMARKS
CONCORDIA      CLOUDY    32  29  88 NW7       30.05S
EMPORIA        CLOUDY    34  33  96 NW10      30.04R FOG     WCI  26
LAWRENCE       CLOUDY    34  34 100 W8        30.03S FOG
MANHATTAN      CLOUDY    34  31  88 VRB3      30.05R
OLATHE IND     CLOUDY    34  34 100 W9        30.02R FOG
OLATHE EXE     CLOUDY    34  34 100 W6        30.00S FOG
SALINA           N/A    N/A N/A N/A MISG        N/A
TOPEKA BILLARD CLOUDY    35  31  85 W7        30.03R
TOPEKA FORBES  CLOUDY    35  33  92 W8        30.02S
$$



USA.gov is the U.S. government's official web portal to all federal, state and local government web resources and services.